| time (UTC) | temp F | wind direction | speed knots | gust knots | rain 1hr in | rain 24hr in | rain mn in | humidity % | barometer mb |
| 20260505181539 | 58 | 360 | 2.6 | 5.2 | 0.00 | 0.00 | 0.00 | 71 | 1004.3 |
| 20260505180048 | 58 | 0 | 0.0 | 3.5 | 0.00 | 0.00 | 0.00 | 71 | 1004.0 |
| 20260505174605 | 58 | 0 | 0.0 | 0.0 | 0.00 | 0.00 | 0.00 | 71 | 1003.8 |
| 20260505173043 | 58 | 0 | 0.0 | 0.0 | 0.00 | 0.00 | 0.00 | 70 | 1003.5 |
| 20260505171543 | 59 | 0 | 0.9 | 7.0 | 0.00 | 0.00 | 0.00 | 67 | 1003.4 |
| 20260505170120 | 60 | 325 | 0.9 | 7.0 | 0.00 | 0.00 | 0.00 | 66 | 1003.7 |
| 20260505164550 | 60 | 287 | 0.9 | 5.2 | 0.00 | 0.00 | 0.00 | 64 | 1003.9 |
| 20260505163046 | 60 | 275 | 1.7 | 7.8 | 0.00 | 0.00 | 0.00 | 63 | 1004.0 |
| 20260505161553 | 60 | 291 | 4.3 | 10.4 | 0.00 | 0.00 | 0.00 | 62 | 1004.2 |
| 20260505153056 | 63 | 268 | 3.5 | 9.6 | 0.00 | 0.00 | 0.00 | 56 | 1003.8 |
| 20260505151554 | 63 | 281 | 4.3 | 9.6 | 0.00 | 0.00 | 0.00 | 55 | 1003.9 |
| 20260505124550 | 65 | 270 | 10.4 | 16.5 | 0.00 | 0.00 | 0.00 | 58 | 1003.8 |
| 20260505123106 | 64 | 271 | 6.1 | 13.0 | 0.00 | 0.00 | 0.00 | 55 | 1003.8 |
| 20260505121546 | 65 | 276 | 6.1 | 11.3 | 0.00 | 0.00 | 0.00 | 57 | 1004.2 |
| 20260505120052 | 67 | 287 | 5.2 | 11.3 | 0.00 | 0.00 | 0.00 | 54 | 1004.2 |
| 20260505114612 | 68 | 292 | 0.9 | 6.1 | 0.00 | 0.00 | 0.00 | 52 | 1004.2 |
| 20260505113048 | 69 | 0 | 3.5 | 8.7 | 0.00 | 0.00 | 0.00 | 50 | 1004.1 |
| 20260505111605 | 68 | 0 | 0.0 | 6.1 | 0.00 | 0.00 | 0.00 | 50 | 1004.1 |
| 20260505101547 | 67 | 0 | 0.0 | 0.0 | 0.00 | 0.00 | 0.00 | 53 | 1004.4 |
| 20260505100051 | 67 | 0 | 0.0 | 3.5 | 0.00 | 0.00 | 0.00 | 56 | 1004.5 |
| 20260505094548 | 67 | 0 | 0.9 | 5.2 | 0.00 | 0.00 | 0.00 | 56 | 1004.7 |
| 20260505093049 | 68 | 0 | 0.9 | 6.1 | 0.00 | 0.00 | 0.00 | 56 | 1004.8 |
| 20260505091545 | 66 | 0 | 0.0 | 2.6 | 0.00 | 0.00 | 0.00 | 59 | 1005.0 |
| 20260505090054 | 64 | 0 | 0.0 | 0.9 | 0.00 | 0.00 | 0.00 | 60 | 1005.1 |
| 20260505084545 | 63 | 0 | 0.0 | 0.0 | 0.00 | 0.00 | 0.00 | 61 | 1005.2 |
| 20260505083101 | 64 | 0 | 0.0 | 3.5 | 0.00 | 0.00 | 0.00 | 61 | 1005.4 |
| 20260505081555 | 62 | 0 | 0.0 | 1.7 | 0.00 | 0.00 | 0.00 | 67 | 1005.4 |
| 20260505080049 | 61 | 0 | 0.0 | 0.0 | 0.00 | 0.00 | 0.00 | 68 | 1005.5 |
| 20260505074553 | 60 | 0 | 0.0 | 0.0 | 0.00 | 0.00 | 0.00 | 68 | 1005.5 |
| 20260505073047 | 59 | 0 | 0.0 | 1.7 | 0.00 | 0.00 | 0.00 | 69 | 1005.7 |
| 20260505071543 | 57 | 0 | 0.0 | 4.3 | 0.00 | 0.00 | 0.00 | 71 | 1005.9 |
| 20260505070053 | 56 | 0 | 0.0 | 2.6 | 0.00 | 0.00 | 0.00 | 74 | 1006.2 |
| 20260505064555 | 55 | 0 | 0.0 | 0.0 | 0.00 | 0.00 | 0.00 | 76 | 1006.3 |
| 20260505063052 | 55 | 0 | 0.0 | 0.0 | 0.00 | 0.00 | 0.00 | 78 | 1006.3 |
| 20260505061545 | 54 | 0 | 0.0 | 2.6 | 0.00 | 0.00 | 0.00 | 78 | 1006.4 |
| 20260505060048 | 53 | 0 | 0.0 | 5.2 | 0.00 | 0.00 | 0.00 | 80 | 1006.5 |
| 20260505054557 | 51 | 0 | 0.0 | 4.3 | 0.00 | 0.00 | 0.00 | 82 | 1006.4 |
| 20260505053049 | 49 | 0 | 0.0 | 0.0 | 0.00 | 0.00 | 0.00 | 84 | 1006.2 |
| 20260505051543 | 47 | 0 | 0.0 | 0.0 | 0.00 | 0.00 | 0.00 | 84 | 1006.2 |
| 20260505041605 | 44 | 0 | 0.0 | 0.0 | 0.00 | 0.00 | 0.00 | 81 | 1006.6 |
| 20260505040042 | 44 | 0 | 0.0 | 0.0 | 0.00 | 0.00 | 0.00 | 80 | 1006.6 |
| 20260505034545 | 44 | 0 | 0.0 | 0.0 | 0.00 | 0.00 | 0.00 | 81 | 1006.6 |
| 20260505033049 | 44 | 0 | 0.0 | 0.0 | 0.00 | 0.00 | 0.00 | 80 | 1006.6 |
| 20260505031551 | 45 | 0 | 0.0 | 0.0 | 0.00 | 0.00 | 0.00 | 80 | 1006.7 |
| 20260505030048 | 45 | 0 | 0.0 | 0.0 | 0.00 | 0.00 | 0.00 | 79 | 1006.9 |
| 20260505024548 | 45 | 0 | 0.0 | 0.0 | 0.00 | 0.00 | 0.00 | 79 | 1007.0 |
| 20260505023051 | 46 | 0 | 0.0 | 0.0 | 0.00 | 0.00 | 0.00 | 79 | 1007.2 |
| 20260505021548 | 46 | 0 | 0.0 | 0.0 | 0.00 | 0.00 | 0.00 | 80 | 1007.5 |
| 20260505020041 | 46 | 0 | 0.0 | 0.0 | 0.00 | 0.00 | 0.00 | 79 | 1007.6 |
| 20260505014544 | 47 | 0 | 0.0 | 0.0 | 0.00 | 0.00 | 0.00 | 79 | 1007.6 |
| 20260505013046 | 47 | 0 | 0.0 | 0.0 | 0.00 | 0.00 | 0.00 | 78 | 1007.6 |
| 20260505011538 | 48 | 0 | 0.0 | 0.0 | 0.00 | 0.00 | 0.00 | 78 | 1007.7 |
| 20260505010048 | 48 | 0 | 0.0 | 0.0 | 0.00 | 0.00 | 0.00 | 78 | 1007.6 |
| 20260505004548 | 49 | 0 | 0.0 | 0.0 | 0.00 | 0.00 | 0.00 | 78 | 1007.8 |
| 20260505003049 | 49 | 0 | 0.0 | 0.0 | 0.00 | 0.00 | 0.00 | 78 | 1007.8 |
| 20260505001553 | 50 | 0 | 0.0 | 0.0 | 0.00 | 0.00 | 0.00 | 77 | 1007.9 |
| 20260505000054 | 50 | 0 | 0.0 | 0.0 | 0.00 | 0.00 | 0.00 | 76 | 1008.1 |
| 20260504234602 | 51 | 0 | 0.0 | 0.0 | 0.00 | 0.00 | 0.00 | 76 | 1008.2 |
| 20260504233051 | 51 | 0 | 0.0 | 0.0 | 0.00 | 0.00 | 0.00 | 77 | 1008.2 |
| 20260504231558 | 51 | 0 | 0.0 | 0.0 | 0.00 | 0.00 | 0.00 | 77 | 1008.5 |
| 20260504230041 | 52 | 0 | 0.0 | 0.0 | 0.00 | 0.00 | 0.00 | 77 | 1008.6 |
| 20260504224551 | 52 | 0 | 0.0 | 0.0 | 0.00 | 0.00 | 0.00 | 77 | 1008.8 |
| 20260504223050 | 53 | 0 | 0.0 | 0.0 | 0.00 | 0.00 | 0.00 | 77 | 1008.8 |
| 20260504221553 | 53 | 0 | 0.0 | 0.0 | 0.00 | 0.00 | 0.00 | 76 | 1008.8 |
| 20260504220052 | 54 | 0 | 0.0 | 0.0 | 0.00 | 0.00 | 0.00 | 75 | 1008.7 |
| 20260504214548 | 54 | 0 | 0.0 | 3.5 | 0.00 | 0.00 | 0.00 | 74 | 1009.0 |
| 20260504213050 | 55 | 291 | 0.0 | 0.0 | 0.00 | 0.00 | 0.00 | 73 | 1009.1 |
| 20260504211550 | 56 | 0 | 0.0 | 0.0 | 0.00 | 0.00 | 0.00 | 71 | 1009.0 |
| 20260504210104 | 56 | 0 | 0.0 | 0.0 | 0.00 | 0.00 | 0.00 | 71 | 1009.1 |
| 20260504204548 | 57 | 0 | 0.0 | 5.2 | 0.00 | 0.00 | 0.00 | 71 | 1009.2 |
| 20260504203049 | 58 | 0 | 0.0 | 0.0 | 0.00 | 0.00 | 0.00 | 70 | 1009.2 |
| 20260504201551 | 58 | 0 | 0.0 | 2.6 | 0.00 | 0.00 | 0.00 | 70 | 1009.3 |
| 20260504200048 | 59 | 0 | 0.0 | 0.0 | 0.00 | 0.00 | 0.00 | 68 | 1009.5 |
| 20260504194600 | 59 | 0 | 0.9 | 5.2 | 0.00 | 0.00 | 0.00 | 68 | 1009.4 |
| 20260504193045 | 60 | 0 | 0.0 | 7.8 | 0.00 | 0.00 | 0.00 | 67 | 1009.6 |
| 20260504191549 | 61 | 49 | 0.9 | 3.5 | 0.00 | 0.00 | 0.00 | 65 | 1009.4 |
| 20260504190113 | 63 | 0 | 0.0 | 8.7 | 0.00 | 0.00 | 0.00 | 62 | 1009.9 |
| 20260504184555 | 64 | 189 | 1.7 | 10.4 | 0.00 | 0.00 | 0.00 | 59 | 1009.6 |
| 20260504183042 | 67 | 170 | 1.7 | 7.0 | 0.00 | 0.00 | 0.00 | 52 | 1009.1 |